| time (UTC) | temp F | wind direction | speed MPH | gust MPH | rain 1hr in | rain 24hr in | rain mn in | humidity % | barometer mb |
| 20260507030015 | 51 | 311 | 5.0 | 9.0 | 260.25 | 0.00 | 0.32 | ||
| 20260507025516 | 51 | 226 | 6.0 | 12.0 | 260.25 | 0.00 | 0.32 | ||
| 20260507024515 | 52 | 269 | 7.0 | 14.0 | 260.25 | 0.00 | 0.32 | ||
| 20260507024015 | 52 | 287 | 7.0 | 14.0 | 260.25 | 0.00 | 0.32 | ||
| 20260507021515 | 54 | 288 | 6.0 | 14.0 | 260.25 | 0.00 | 0.32 | ||
| 20260507021015 | 54 | 287 | 5.0 | 14.0 | 260.25 | 0.00 | 0.32 | ||
| 20260507020015 | 55 | 278 | 6.0 | 9.0 | 260.25 | 0.00 | 0.32 | ||
| 20260507015015 | 56 | 273 | 7.0 | 15.0 | 260.25 | 0.00 | 0.32 | ||
| 20260507014015 | 56 | 274 | 5.0 | 8.0 | 260.25 | 0.00 | 0.32 | ||
| 20260507013515 | 56 | 315 | 6.0 | 12.0 | 260.24 | 0.00 | 0.31 | ||
| 20260507013015 | 56 | 278 | 5.0 | 11.0 | 260.24 | 0.00 | 0.31 | ||
| 20260507012015 | 57 | 276 | 6.0 | 10.0 | 260.24 | 0.00 | 0.31 | ||
| 20260507010515 | 57 | 281 | 5.0 | 13.0 | 260.24 | 0.00 | 0.31 | ||
| 20260507010015 | 58 | 260 | 6.0 | 14.0 | 260.23 | 0.00 | 0.30 | ||
| 20260507005515 | 58 | 309 | 5.0 | 12.0 | 260.22 | 0.00 | 0.29 | ||
| 20260507005015 | 58 | 266 | 5.0 | 9.0 | 260.22 | 0.00 | 0.29 | ||
| 20260507004015 | 58 | 277 | 4.0 | 10.0 | 260.21 | 0.00 | 0.28 | ||
| 20260507003515 | 58 | 250 | 2.0 | 11.0 | 260.21 | 0.00 | 0.28 | ||
| 20260507003015 | 58 | 249 | 5.0 | 11.0 | 260.21 | 0.00 | 0.28 | ||
| 20260507001516 | 58 | 274 | 4.0 | 8.0 | 260.21 | 0.00 | 0.28 | ||
| 20260507001015 | 58 | 277 | 4.0 | 7.0 | 260.20 | 0.00 | 0.27 | ||
| 20260507000015 | 58 | 252 | 4.0 | 10.0 | 260.20 | 0.00 | 0.27 | ||
| 20260506235515 | 58 | 225 | 4.0 | 9.0 | 260.20 | 0.00 | 0.27 | ||
| 20260506235015 | 58 | 127 | 6.0 | 14.0 | 260.20 | 0.00 | 0.27 | ||
| 20260506234016 | 58 | 136 | 4.0 | 9.0 | 260.19 | 0.00 | 0.26 | ||
| 20260506232016 | 58 | 117 | 5.0 | 16.0 | 260.19 | 0.00 | 0.26 | ||
| 20260506231515 | 59 | 224 | 5.0 | 11.0 | 260.19 | 0.00 | 0.26 | ||
| 20260506231015 | 59 | 225 | 6.0 | 13.0 | 260.19 | 0.00 | 0.26 | ||
| 20260506225015 | 59 | 242 | 5.0 | 11.0 | 260.19 | 0.00 | 0.26 | ||
| 20260506224015 | 59 | 231 | 4.0 | 11.0 | 260.19 | 0.00 | 0.26 | ||
| 20260506223516 | 59 | 135 | 5.0 | 9.0 | 260.19 | 0.00 | 0.26 | ||
| 20260506223015 | 59 | 240 | 5.0 | 11.0 | 260.19 | 0.00 | 0.26 | ||
| 20260506222516 | 59 | 232 | 5.0 | 11.0 | 260.19 | 0.00 | 0.26 | ||
| 20260506220016 | 59 | 263 | 5.0 | 12.0 | 260.19 | 0.00 | 0.26 | ||
| 20260506215016 | 60 | 235 | 5.0 | 13.0 | 260.19 | 0.00 | 0.26 | ||
| 20260506212017 | 59 | 108 | 5.0 | 11.0 | 260.19 | 0.00 | 0.26 | ||
| 20260506211016 | 60 | 214 | 5.0 | 14.0 | 260.19 | 0.00 | 0.26 | ||
| 20260506210517 | 60 | 221 | 4.0 | 9.0 | 260.19 | 0.00 | 0.26 | ||
| 20260506204516 | 61 | 215 | 3.0 | 7.0 | 260.18 | 0.00 | 0.25 | ||
| 20260506204017 | 61 | 212 | 3.0 | 8.0 | 260.18 | 0.00 | 0.25 | ||
| 20260506203516 | 61 | 201 | 3.0 | 6.0 | 260.18 | 0.00 | 0.25 | ||
| 20260506203016 | 61 | 228 | 4.0 | 9.0 | 260.18 | 0.00 | 0.25 | ||
| 20260506202016 | 60 | 231 | 3.0 | 9.0 | 260.17 | 0.00 | 0.24 | ||
| 20260506200516 | 61 | 236 | 3.0 | 8.0 | 260.12 | 0.00 | 0.19 | ||
| 20260506200016 | 61 | 242 | 4.0 | 6.0 | 260.11 | 0.00 | 0.18 | ||
| 20260506194519 | 61 | 278 | 3.0 | 5.0 | 260.07 | 0.00 | 0.14 | ||
| 20260506193516 | 61 | 226 | 4.0 | 11.0 | 260.06 | 0.00 | 0.13 | ||
| 20260506193016 | 61 | 277 | 6.0 | 11.0 | 260.05 | 0.00 | 0.12 | ||
| 20260506191516 | 61 | 270 | 4.0 | 11.0 | 260.04 | 0.00 | 0.11 | ||
| 20260506190516 | 62 | 255 | 5.0 | 10.0 | 260.04 | 0.00 | 0.11 | ||
| 20260506190016 | 62 | 253 | 5.0 | 10.0 | 260.03 | 0.00 | 0.10 | ||
| 20260506185516 | 62 | 205 | 4.0 | 8.0 | 260.03 | 0.00 | 0.10 | ||
| 20260506185016 | 62 | 211 | 4.0 | 8.0 | 260.03 | 0.00 | 0.10 | ||
| 20260506184516 | 62 | 191 | 5.0 | 10.0 | 260.03 | 0.00 | 0.10 | ||
| 20260506182516 | 63 | 217 | 3.0 | 7.0 | 260.01 | 0.00 | 0.08 | ||
| 20260506182016 | 62 | 280 | 3.0 | 8.0 | 260.01 | 0.00 | 0.08 | ||
| 20260506181516 | 62 | 307 | 4.0 | 10.0 | 260.00 | 0.00 | 0.07 | ||
| 20260506181016 | 63 | 232 | 3.0 | 9.0 | 259.99 | 0.00 | 0.06 | ||
| 20260506180516 | 63 | 281 | 4.0 | 7.0 | 259.98 | 0.00 | 0.05 | ||
| 20260506175016 | 63 | 233 | 5.0 | 9.0 | 259.96 | 0.00 | 0.03 | ||
| 20260506174516 | 63 | 249 | 5.0 | 10.0 | 259.96 | 0.00 | 0.03 | ||
| 20260506174016 | 64 | 243 | 4.0 | 7.0 | 259.95 | 0.00 | 0.02 | ||
| 20260506173516 | 64 | 259 | 3.0 | 6.0 | 259.95 | 0.00 | 0.02 | ||
| 20260506173016 | 64 | 225 | 3.0 | 6.0 | 259.94 | 0.00 | 0.01 | ||
| 20260506171016 | 65 | 238 | 2.0 | 4.0 | 259.93 | 0.00 | 0.00 | ||
| 20260506170516 | 66 | 238 | 2.0 | 5.0 | 259.93 | 0.00 | 0.00 | ||
| 20260506170016 | 66 | 129 | 2.0 | 7.0 | 259.93 | 0.00 | 0.00 | ||
| 20260506165016 | 66 | 139 | 4.0 | 10.0 | 259.93 | 0.00 | 0.00 | ||
| 20260506164516 | 67 | 191 | 3.0 | 8.0 | 259.93 | 0.00 | 0.00 | ||
| 20260506164016 | 68 | 245 | 2.0 | 5.0 | 259.93 | 0.00 | 0.00 | ||
| 20260506161016 | 65 | 226 | 2.0 | 6.0 | 259.93 | 0.00 | 0.00 | ||
| 20260506160516 | 66 | 136 | 1.0 | 11.0 | 259.93 | 0.00 | 0.00 | ||
| 20260506155016 | 64 | 232 | 3.0 | 7.0 | 259.93 | 0.00 | 0.00 | ||
| 20260506154016 | 64 | 235 | 2.0 | 7.0 | 259.93 | 0.00 | 0.00 | ||
| 20260506151516 | 65 | 297 | 2.0 | 6.0 | 259.93 | 0.00 | 0.00 | ||
| 20260506145516 | 64 | 248 | 2.0 | 7.0 | 259.93 | 0.00 | 0.00 | ||
| 20260506140016 | 64 | 224 | 3.0 | 6.0 | 259.93 | 0.00 | 0.00 | ||
| 20260506135016 | 63 | 242 | 3.0 | 7.0 | 259.93 | 0.00 | 0.00 | ||
| 20260506134516 | 63 | 287 | 4.0 | 9.0 | 259.93 | 0.00 | 0.00 | ||
| 20260506132516 | 63 | 231 | 4.0 | 8.0 | 259.93 | 0.00 | 0.00 | ||
| 20260506132019 | 63 | 304 | 1.0 | 5.0 | 259.93 | 0.00 | 0.00 | ||
| 20260506131016 | 63 | 226 | 2.0 | 7.0 | 259.93 | 0.00 | 0.00 | ||
| 20260506130016 | 64 | 267 | 3.0 | 5.0 | 259.93 | 0.00 | 0.00 | ||
| 20260506124016 | 63 | 287 | 2.0 | 9.0 | 259.93 | 0.00 | 0.00 | ||
| 20260506122018 | 62 | 221 | 2.0 | 7.0 | 259.93 | 0.00 | 0.00 | ||
| 20260506121016 | 62 | 127 | 2.0 | 6.0 | 259.93 | 0.00 | 0.00 | ||
| 20260506115016 | 61 | 117 | 2.0 | 4.0 | 259.93 | 0.00 | 0.00 | ||
| 20260506110016 | 59 | 158 | 2.0 | 6.0 | 259.93 | 0.00 | 0.00 | ||
| 20260506104016 | 59 | 229 | 3.0 | 7.0 | 259.93 | 0.00 | 0.00 | ||
| 20260506103516 | 59 | 205 | 3.0 | 6.0 | 259.93 | 0.00 | 0.00 | ||
| 20260506102516 | 58 | 256 | 3.0 | 6.0 | 259.93 | 0.00 | 0.00 | ||
| 20260506101516 | 59 | 132 | 2.0 | 6.0 | 259.93 | 0.00 | 0.00 | ||
| 20260506101017 | 58 | 169 | 2.0 | 3.0 | 259.93 | 0.00 | 0.00 | ||
| 20260506100516 | 58 | 226 | 2.0 | 4.0 | 259.93 | 0.00 | 0.00 | ||
| 20260506100016 | 58 | 214 | 2.0 | 4.0 | 259.93 | 0.00 | 0.00 | ||
| 20260506095016 | 58 | 229 | 2.0 | 4.0 | 259.93 | 0.00 | 0.00 | ||
| 20260506094016 | 58 | 253 | 3.0 | 4.0 | 259.93 | 0.00 | 0.00 | ||
| 20260506093516 | 58 | 259 | 3.0 | 5.0 | 259.93 | 0.00 | 0.00 | ||
| 20260506093016 | 58 | 246 | 2.0 | 4.0 | 259.93 | 0.00 | 0.00 | ||
| 20260506092516 | 58 | 229 | 2.0 | 3.0 | 259.93 | 0.00 | 0.00 | ||
| 20260506092016 | 58 | 301 | 2.0 | 5.0 | 259.93 | 0.00 | 0.00 | ||
| 20260506091516 | 59 | 267 | 2.0 | 5.0 | 259.93 | 0.00 | 0.00 | ||
| 20260506091016 | 58 | 293 | 3.0 | 7.0 | 259.93 | 0.00 | 0.00 | ||
| 20260506085017 | 58 | 295 | 4.0 | 7.0 | 259.93 | 0.00 | 0.00 | ||
| 20260506084516 | 58 | 208 | 3.0 | 6.0 | 259.93 | 0.00 | 0.00 | ||
| 20260506084016 | 59 | 260 | 3.0 | 5.0 | 259.93 | 0.00 | 0.00 | ||
| 20260506082516 | 59 | 284 | 2.0 | 7.0 | 259.93 | 0.00 | 0.00 | ||
| 20260506082016 | 59 | 308 | 2.0 | 3.0 | 259.93 | 0.00 | 0.00 | ||
| 20260506081016 | 60 | 277 | 3.0 | 7.0 | 259.93 | 0.00 | 0.00 | ||
| 20260506073516 | 60 | 302 | 2.0 | 7.0 | 259.93 | 0.00 | 0.00 | ||
| 20260506072016 | 59 | 262 | 3.0 | 8.0 | 259.93 | 0.00 | 0.00 | ||
| 20260506071016 | 60 | 291 | 3.0 | 8.0 | 259.93 | 0.00 | 0.00 | ||
| 20260506062516 | 61 | 300 | 4.0 | 9.0 | 259.93 | 0.00 | 0.00 | ||
| 20260506062016 | 61 | 208 | 4.0 | 9.0 | 259.93 | 0.00 | 0.00 | ||
| 20260506061016 | 61 | 212 | 2.0 | 9.0 | 259.93 | 0.00 | 0.00 | ||
| 20260506051016 | 62 | 218 | 4.0 | 10.0 | 259.93 | 0.00 | 0.00 | ||
| 20260506045016 | 62 | 242 | 5.0 | 11.0 | 259.93 | 0.00 | 0.00 | ||
| 20260506044016 | 62 | 215 | 5.0 | 10.0 | 259.93 | 0.00 | 0.00 | ||
| 20260506042016 | 62 | 215 | 4.0 | 7.0 | 259.93 | 0.00 | 0.00 | ||
| 20260506041016 | 62 | 284 | 4.0 | 10.0 | 259.93 | 0.00 | 0.00 | ||
| 20260506035017 | 62 | 266 | 3.0 | 6.0 | 259.93 | 0.00 | 0.00 | ||
| 20260506033016 | 63 | 208 | 3.0 | 7.0 | 259.93 | 0.00 | 0.01 | ||
| 20260506032016 | 63 | 240 | 2.0 | 5.0 | 259.93 | 0.00 | 0.01 |